{"data":{"norad_id":69482,"intl_designator":"2026-131E","name":"STARLINK-37814","alt_names":[],"object_type":"PAYLOAD","status":"ACTIVE","operator":null,"country":"US","launch_date":"2026-06-11","launch_site_code":"AFWTR","launch_vehicle":null,"mission":null,"orbit_class":"UNKNOWN","rcs_meters":null,"size_class":null,"mass_kg":null,"dimensions":null,"purposes":["comms"],"wikipedia_slug":null,"has_3d_model":false,"image_url":null,"decayed_at":null,"tle_current":{"epoch":"2026-09-20T00:53:46.568256Z","epoch_age_seconds":65389,"freshness":"FRESH","line1":"1 69482U 26131E   26263.03734454  .00014534  00000+0  45113-3 0  9994","line2":"2 69482  97.2857 283.8666 0001678  94.9713 265.1722 15.33481245 16821","mean_motion":15.33481245,"eccentricity":0.0001678,"inclination_deg":97.2857,"raan_deg":283.8666,"arg_perigee_deg":94.9713,"mean_anomaly_deg":265.1722,"bstar":0.00045113,"rev_number":1682,"period_min":93.903985111993,"perigee_km":464.28698554458,"apogee_km":466.58368842087,"semimajor_km":6843.5723369827,"source":"CELESTRAK","updated_at":"2026-09-20T09:00:44.205853Z"}}}